Time,TemperatureF,DewpointF,PressureIn,WindDirection,WindDirectionDegrees,WindSpeedMPH,WindSpeedGustMPH,Humidity,HourlyPrecipIn,Conditions,Clouds,dailyrainin,SoftwareType,DateUTC
2013-03-28 09:33:00,43.3,31.5,30.41,East,92,3.0,3.0,63,0.00,,,0.00,Wunderground v.1.15,2013-03-28 14:33:00,
2013-03-28 09:34:00,44.2,32.4,30.41,East,85,3.0,3.0,63,0.00,,,0.01,Wunderground v.1.15,2013-03-28 14:34:00,
2013-03-28 09:36:00,44.4,32.6,30.41,East,93,3.0,5.0,63,0.00,,,0.01,Wunderground v.1.15,2013-03-28 14:36:00,
2013-03-28 09:37:00,44.5,32.3,30.41,East,80,3.0,5.0,62,0.00,,,0.01,Wunderground v.1.15,2013-03-28 14:37:00,
2013-03-28 09:43:00,45.1,32.4,30.41,East,88,3.0,3.0,61,0.00,,,0.01,Wunderground v.1.15,2013-03-28 14:43:00,
2013-03-28 09:49:00,45.8,31.9,30.42,NE,49,3.0,3.0,58,0.00,,,0.01,Wunderground v.1.15,2013-03-28 14:49:00,
2013-03-28 09:54:00,45.9,32.8,30.42,East,84,2.0,2.0,60,0.00,,,0.01,Wunderground v.1.15,2013-03-28 14:54:00,
2013-03-28 10:00:00,46.5,33.4,30.42,ENE,73,2.0,2.0,60,0.00,,,0.01,Wunderground v.1.15,2013-03-28 15:00:00,
2013-03-28 10:06:00,46.7,32.3,30.42,ENE,66,2.0,7.0,57,0.00,,,0.01,Wunderground v.1.15,2013-03-28 15:06:00,
2013-03-28 10:12:00,46.4,31.1,30.42,East,85,2.0,2.0,55,0.00,,,0.01,Wunderground v.1.15,2013-03-28 15:12:00,
2013-03-28 10:17:00,46.3,32.3,30.42,ENE,78,2.0,4.0,58,0.00,,,0.01,Wunderground v.1.15,2013-03-28 15:17:00,
2013-03-28 10:22:00,46.3,31.0,30.42,ENE,62,2.0,2.0,55,0.00,,,0.01,Wunderground v.1.15,2013-03-28 15:22:00,
2013-03-28 10:27:00,46.4,32.4,30.42,ENE,66,2.0,5.0,58,0.00,,,0.01,Wunderground v.1.15,2013-03-28 15:27:00,
2013-03-28 10:33:00,46.8,32.4,30.42,ENE,70,3.0,3.0,57,0.00,,,0.01,Wunderground v.1.15,2013-03-28 15:33:00,
2013-03-28 10:38:00,46.8,31.0,30.42,East,92,2.0,3.0,54,0.00,,,0.01,Wunderground v.1.15,2013-03-28 15:38:00,
2013-03-28 10:44:00,47.1,30.8,30.42,East,80,2.0,4.0,53,0.00,,,0.01,Wunderground v.1.15,2013-03-28 15:44:00,
2013-03-28 11:21:00,50.2,33.2,30.42,ENE,69,1.0,3.0,52,0.00,,,0.01,Wunderground v.1.15,2013-03-28 16:21:00,
2013-03-28 11:27:00,50.8,32.8,30.41,ESE,117,1.0,4.0,50,0.00,,,0.01,Wunderground v.1.15,2013-03-28 16:27:00,
2013-03-28 11:33:00,50.9,33.9,30.42,East,80,2.0,3.0,52,0.00,,,0.01,Wunderground v.1.15,2013-03-28 16:33:00,
2013-03-28 11:39:00,51.0,32.5,30.41,ESE,109,1.0,3.0,49,0.00,,,0.01,Wunderground v.1.15,2013-03-28 16:39:00,
2013-03-28 11:44:00,51.2,32.7,30.41,ESE,105,1.0,3.0,49,0.00,,,0.01,Wunderground v.1.15,2013-03-28 16:44:00,
2013-03-28 11:49:00,51.4,33.4,30.41,South,189,1.0,3.0,50,0.00,,,0.01,Wunderground v.1.15,2013-03-28 16:49:00,
2013-03-28 11:55:00,52.3,36.6,30.41,NE,52,2.0,3.0,55,0.00,,,0.01,Wunderground v.1.15,2013-03-28 16:55:00,
2013-03-28 12:00:00,53.0,34.8,30.41,NE,39,2.0,2.0,50,0.00,,,0.01,Wunderground v.1.15,2013-03-28 17:00:00,
2013-03-28 12:06:00,53.8,37.1,30.41,NE,44,1.0,2.0,53,0.00,,,0.01,Wunderground v.1.15,2013-03-28 17:06:00,
2013-03-28 12:12:00,54.0,37.2,30.41,NNE,28,2.0,3.0,53,0.00,,,0.01,Wunderground v.1.15,2013-03-28 17:12:00,
2013-03-28 12:18:00,54.2,35.4,30.41,ENE,74,2.0,3.0,49,0.00,,,0.01,Wunderground v.1.15,2013-03-28 17:18:00,
2013-03-28 12:23:00,54.2,35.9,30.41,NE,44,2.0,3.0,50,0.00,,,0.01,Wunderground v.1.15,2013-03-28 17:23:00,
2013-03-28 12:29:00,54.1,35.9,30.41,ENE,76,2.0,3.0,50,0.00,,,0.01,Wunderground v.1.15,2013-03-28 17:29:00,
2013-03-28 12:34:00,54.4,36.1,30.40,NE,45,2.0,3.0,50,0.00,,,0.01,Wunderground v.1.15,2013-03-28 17:34:00,
2013-03-28 12:39:00,54.2,35.9,30.40,NNE,33,2.0,5.0,50,0.00,,,0.01,Wunderground v.1.15,2013-03-28 17:39:00,
2013-03-28 12:44:00,53.8,34.6,30.40,ENE,60,3.0,5.0,48,0.00,,,0.01,Wunderground v.1.15,2013-03-28 17:44:00,
2013-03-28 12:50:00,54.0,35.8,30.40,ENE,71,2.0,2.0,50,0.00,,,0.01,Wunderground v.1.15,2013-03-28 17:50:00,
2013-03-28 12:56:00,54.3,35.0,30.40,NNW,338,2.0,3.0,48,0.00,,,0.01,Wunderground v.1.15,2013-03-28 17:56:00,
2013-03-28 13:02:00,54.8,36.5,30.40,NE,52,2.0,2.0,50,0.00,,,0.01,Wunderground v.1.15,2013-03-28 18:02:00,
2013-03-28 13:08:00,55.7,36.3,30.39,NE,44,2.0,3.0,48,0.00,,,0.01,Wunderground v.1.15,2013-03-28 18:08:00,
2013-03-28 13:14:00,56.3,37.4,30.39,ENE,64,2.0,4.0,49,0.00,,,0.01,Wunderground v.1.15,2013-03-28 18:14:00,
2013-03-28 13:19:00,56.1,36.1,30.39,NE,46,3.0,5.0,47,0.00,,,0.01,Wunderground v.1.15,2013-03-28 18:19:00,
2013-03-28 13:25:00,56.0,38.1,30.39,NE,51,3.0,6.0,51,0.00,,,0.01,Wunderground v.1.15,2013-03-28 18:25:00,
2013-03-28 13:31:00,56.0,35.5,30.38,NE,46,3.0,3.0,46,0.00,,,0.01,Wunderground v.1.15,2013-03-28 18:31:00,
2013-03-28 13:37:00,56.4,35.9,30.38,NNE,26,2.0,3.0,46,0.00,,,0.01,Wunderground v.1.15,2013-03-28 18:37:00,
2013-03-28 13:42:00,56.9,35.8,30.38,NE,38,1.0,2.0,45,0.00,,,0.01,Wunderground v.1.15,2013-03-28 18:42:00,
2013-03-28 13:48:00,57.0,37.0,30.38,SW,217,1.0,3.0,47,0.00,,,0.01,Wunderground v.1.15,2013-03-28 18:48:00,
2013-03-28 13:54:00,56.7,35.6,30.38,WSW,246,2.0,6.0,45,0.00,,,0.01,Wunderground v.1.15,2013-03-28 18:54:00,
2013-03-28 13:59:00,56.3,35.8,30.38,SW,234,2.0,6.0,46,0.00,,,0.01,Wunderground v.1.15,2013-03-28 18:59:00,
2013-03-28 14:05:00,56.2,36.2,30.37,SSW,195,1.0,2.0,47,0.00,,,0.01,Wunderground v.1.15,2013-03-28 19:05:00,
2013-03-28 14:10:00,56.1,37.2,30.37,ENE,64,1.0,5.0,49,0.00,,,0.01,Wunderground v.1.15,2013-03-28 19:10:00,
2013-03-28 14:15:00,55.7,36.8,30.36,SE,124,2.0,5.0,49,0.00,,,0.01,Wunderground v.1.15,2013-03-28 19:15:00,
2013-03-28 14:21:00,55.6,36.2,30.36,SSW,192,2.0,2.0,48,0.00,,,0.01,Wunderground v.1.15,2013-03-28 19:21:00,
2013-03-28 14:27:00,55.9,37.0,30.36,East,93,1.0,4.0,49,0.00,,,0.01,Wunderground v.1.15,2013-03-28 19:27:00,
2013-03-28 14:32:00,56.3,35.8,30.35,West,271,1.0,3.0,46,0.00,,,0.01,Wunderground v.1.15,2013-03-28 19:32:00,
2013-03-28 14:37:00,56.5,36.0,30.35,SW,224,2.0,4.0,46,0.00,,,0.01,Wunderground v.1.15,2013-03-28 19:37:00,
2013-03-28 14:42:00,56.8,37.8,30.35,NNW,344,2.0,2.0,49,0.00,,,0.01,Wunderground v.1.15,2013-03-28 19:42:00,
2013-03-28 14:47:00,57.4,36.8,30.34,WSW,240,2.0,3.0,46,0.00,,,0.01,Wunderground v.1.15,2013-03-28 19:47:00,
2013-03-28 14:53:00,57.8,38.8,30.35,SW,229,2.0,4.0,49,0.00,,,0.01,Wunderground v.1.15,2013-03-28 19:53:00,
2013-03-28 14:59:00,57.6,37.0,30.34,WSW,246,2.0,4.0,46,0.00,,,0.01,Wunderground v.1.15,2013-03-28 19:59:00,
2013-03-28 15:05:00,57.8,37.1,30.34,South,188,2.0,4.0,46,0.00,,,0.01,Wunderground v.1.15,2013-03-28 20:05:00,
2013-03-28 15:11:00,58.0,37.9,30.34,ENE,67,2.0,2.0,47,0.00,,,0.01,Wunderground v.1.15,2013-03-28 20:11:00,
2013-03-28 15:16:00,57.8,37.7,30.34,NE,36,1.0,4.0,47,0.00,,,0.01,Wunderground v.1.15,2013-03-28 20:16:00,
2013-03-28 15:21:00,58.2,36.4,30.34,WSW,257,1.0,4.0,44,0.00,,,0.01,Wunderground v.1.15,2013-03-28 20:21:00,
2013-03-28 15:27:00,58.1,36.9,30.33,NNE,22,1.0,4.0,45,0.00,,,0.01,Wunderground v.1.15,2013-03-28 20:27:00,
2013-03-28 15:32:00,58.5,36.6,30.33,WSW,240,1.0,4.0,44,0.00,,,0.01,Wunderground v.1.15,2013-03-28 20:32:00,
2013-03-28 15:37:00,58.7,36.2,30.33,SSW,212,1.0,5.0,43,0.00,,,0.01,Wunderground v.1.15,2013-03-28 20:37:00,
2013-03-28 15:43:00,59.1,37.8,30.33,West,261,1.0,2.0,45,0.00,,,0.01,Wunderground v.1.15,2013-03-28 20:43:00,
2013-03-28 15:49:00,59.3,37.4,30.33,NNE,24,2.0,4.0,44,0.00,,,0.01,Wunderground v.1.15,2013-03-28 20:49:00,
2013-03-28 15:54:00,58.5,34.9,30.32,SSE,151,2.0,2.0,41,0.00,,,0.01,Wunderground v.1.15,2013-03-28 20:54:00,
2013-03-28 15:59:00,58.4,36.6,30.33,NNE,22,1.0,3.0,44,0.00,,,0.01,Wunderground v.1.15,2013-03-28 20:59:00,
2013-03-28 16:05:00,58.7,35.0,30.32,SW,236,1.0,4.0,41,0.00,,,0.01,Wunderground v.1.15,2013-03-28 21:05:00,
2013-03-28 16:10:00,58.9,35.2,30.32,North,355,2.0,2.0,41,0.00,,,0.01,Wunderground v.1.15,2013-03-28 21:10:00,
2013-03-28 16:16:00,59.3,36.8,30.32,South,180,1.0,2.0,43,0.00,,,0.01,Wunderground v.1.15,2013-03-28 21:16:00,
2013-03-28 16:22:00,59.5,37.0,30.32,NE,35,2.0,4.0,43,0.00,,,0.01,Wunderground v.1.15,2013-03-28 21:22:00,
2013-03-28 16:28:00,59.3,36.2,30.32,NNE,26,2.0,4.0,42,0.00,,,0.01,Wunderground v.1.15,2013-03-28 21:28:00,
2013-03-28 16:33:00,59.0,35.9,30.32,NE,47,2.0,5.0,42,0.00,,,0.01,Wunderground v.1.15,2013-03-28 21:33:00,
2013-03-28 16:38:00,58.6,36.7,30.32,ENE,64,2.0,5.0,44,0.00,,,0.01,Wunderground v.1.15,2013-03-28 21:38:00,
2013-03-28 16:43:00,58.4,36.0,30.32,NNE,13,2.0,2.0,43,0.00,,,0.01,Wunderground v.1.15,2013-03-28 21:43:00,
2013-03-28 16:49:00,58.4,36.6,30.32,NNE,19,2.0,4.0,44,0.00,,,0.01,Wunderground v.1.15,2013-03-28 21:49:00,
2013-03-28 16:55:00,58.0,35.6,30.32,NNE,30,3.0,4.0,43,0.00,,,0.01,Wunderground v.1.15,2013-03-28 21:55:00,
2013-03-28 17:00:00,57.8,36.0,30.31,NE,42,1.0,1.0,44,0.00,,,0.01,Wunderground v.1.15,2013-03-28 22:00:00,
2013-03-28 17:06:00,57.5,34.6,30.31,NNE,19,1.0,2.0,42,0.00,,,0.01,Wunderground v.1.15,2013-03-28 22:06:00,
2013-03-28 17:12:00,57.4,37.3,30.31,NNE,30,1.0,2.0,47,0.00,,,0.01,Wunderground v.1.15,2013-03-28 22:12:00,
2013-03-28 17:18:00,57.2,36.6,30.31,NNE,28,1.0,2.0,46,0.00,,,0.01,Wunderground v.1.15,2013-03-28 22:18:00,
2013-03-28 17:24:00,57.3,37.2,30.31,NE,38,1.0,3.0,47,0.00,,,0.01,Wunderground v.1.15,2013-03-28 22:24:00,
2013-03-28 17:30:00,57.6,36.4,30.31,NE,42,1.0,1.0,45,0.00,,,0.01,Wunderground v.1.15,2013-03-28 22:30:00,
2013-03-28 17:35:00,57.5,36.3,30.31,NNE,24,1.0,3.0,45,0.00,,,0.01,Wunderground v.1.15,2013-03-28 22:35:00,
2013-03-28 17:40:00,57.4,36.8,30.32,NNE,24,2.0,2.0,46,0.00,,,0.01,Wunderground v.1.15,2013-03-28 22:40:00,
2013-03-28 17:45:00,57.1,35.9,30.31,NNE,24,2.0,2.0,45,0.00,,,0.01,Wunderground v.1.15,2013-03-28 22:45:00,
2013-03-28 17:50:00,57.1,37.6,30.31,NNE,17,1.0,2.0,48,0.00,,,0.01,Wunderground v.1.15,2013-03-28 22:50:00,
2013-03-28 17:56:00,56.9,36.9,30.31,NNE,27,1.0,3.0,47,0.00,,,0.01,Wunderground v.1.15,2013-03-28 22:56:00,
2013-03-28 18:01:00,56.7,36.1,30.31,NNE,26,2.0,2.0,46,0.00,,,0.01,Wunderground v.1.15,2013-03-28 23:01:00,
2013-03-28 18:07:00,56.7,36.7,30.31,NNE,16,2.0,3.0,47,0.00,,,0.01,Wunderground v.1.15,2013-03-28 23:07:00,
2013-03-28 18:12:00,56.7,36.7,30.31,NNE,19,1.0,1.0,47,0.00,,,0.01,Wunderground v.1.15,2013-03-28 23:12:00,
2013-03-28 18:18:00,56.6,36.6,30.31,NNE,19,0.0,2.0,47,0.00,,,0.01,Wunderground v.1.15,2013-03-28 23:18:00,
2013-03-28 18:24:00,56.3,36.3,30.31,NNE,15,1.0,2.0,47,0.00,,,0.01,Wunderground v.1.15,2013-03-28 23:24:00,
2013-03-28 18:30:00,56.0,37.6,30.31,NNE,17,1.0,1.0,50,0.00,,,0.01,Wunderground v.1.15,2013-03-28 23:30:00,
2013-03-28 18:35:00,55.6,39.2,30.31,NNE,17,1.0,1.0,54,0.00,,,0.01,Wunderground v.1.15,2013-03-28 23:35:00,
2013-03-28 18:40:00,54.9,39.5,30.32,NNE,17,0.0,0.0,56,0.00,,,0.01,Wunderground v.1.15,2013-03-28 23:40:00,
2013-03-28 18:45:00,54.0,40.4,30.31,NNE,17,0.0,1.0,60,0.00,,,0.01,Wunderground v.1.15,2013-03-28 23:45:00,
2013-03-28 18:50:00,53.3,40.2,30.31,NNE,17,0.0,0.0,61,0.00,,,0.01,Wunderground v.1.15,2013-03-28 23:50:00,
2013-03-28 18:55:00,52.6,39.9,30.32,NNE,17,0.0,0.0,62,0.00,,,0.01,Wunderground v.1.15,2013-03-28 23:55:00,
2013-03-28 19:00:00,52.1,39.5,30.31,NNE,17,0.0,1.0,62,0.00,,,0.01,Wunderground v.1.15,2013-03-29 00:00:00,
2013-03-28 19:06:00,51.9,39.7,30.31,NNE,17,0.0,2.0,63,0.00,,,0.01,Wunderground v.1.15,2013-03-29 00:06:00,
2013-03-28 19:12:00,51.7,38.7,30.31,NNE,17,1.0,1.0,61,0.00,,,0.01,Wunderground v.1.15,2013-03-29 00:12:00,
2013-03-28 19:18:00,51.5,39.3,30.31,NNE,17,0.0,1.0,63,0.00,,,0.01,Wunderground v.1.15,2013-03-29 00:18:00,
2013-03-28 19:24:00,51.1,39.7,30.31,NNE,17,0.0,1.0,65,0.00,,,0.01,Wunderground v.1.15,2013-03-29 00:24:00,
2013-03-28 19:30:00,50.5,38.8,30.31,NNE,17,0.0,0.0,64,0.00,,,0.01,Wunderground v.1.15,2013-03-29 00:30:00,
2013-03-28 19:35:00,50.6,38.5,30.31,NNE,20,0.0,2.0,63,0.00,,,0.01,Wunderground v.1.15,2013-03-29 00:35:00,
2013-03-28 19:41:00,50.7,39.0,30.31,NNE,31,1.0,2.0,64,0.00,,,0.01,Wunderground v.1.15,2013-03-29 00:41:00,
2013-03-28 19:46:00,50.5,38.8,30.31,NE,51,2.0,3.0,64,0.00,,,0.01,Wunderground v.1.15,2013-03-29 00:46:00,
2013-03-28 19:51:00,50.4,38.7,30.31,ENE,58,2.0,2.0,64,0.00,,,0.01,Wunderground v.1.15,2013-03-29 00:51:00,
2013-03-28 19:57:00,50.1,38.8,30.31,ENE,59,2.0,3.0,65,0.00,,,0.01,Wunderground v.1.15,2013-03-29 00:57:00,
2013-03-28 20:03:00,50.0,38.7,30.31,ENE,59,1.0,2.0,65,0.00,,,0.01,Wunderground v.1.15,2013-03-29 01:03:00,
2013-03-28 20:08:00,49.7,38.0,30.31,ENE,59,1.0,2.0,64,0.00,,,0.01,Wunderground v.1.15,2013-03-29 01:08:00,
2013-03-28 20:13:00,49.4,37.7,30.31,ENE,59,0.0,1.0,64,0.00,,,0.01,Wunderground v.1.15,2013-03-29 01:13:00,
2013-03-28 20:18:00,49.1,37.8,30.31,ENE,59,0.0,1.0,65,0.00,,,0.01,Wunderground v.1.15,2013-03-29 01:18:00,
2013-03-28 20:24:00,49.1,37.8,30.31,ENE,59,0.0,0.0,65,0.00,,,0.01,Wunderground v.1.15,2013-03-29 01:24:00,
2013-03-28 20:30:00,49.1,37.8,30.31,ENE,59,0.0,0.0,65,0.00,,,0.01,Wunderground v.1.15,2013-03-29 01:30:00,
2013-03-28 20:36:00,48.8,37.9,30.31,ENE,59,0.0,0.0,66,0.00,,,0.01,Wunderground v.1.15,2013-03-29 01:36:00,
2013-03-28 20:41:00,48.5,38.0,30.31,ENE,59,0.0,0.0,67,0.00,,,0.01,Wunderground v.1.15,2013-03-29 01:41:00,
2013-03-28 20:47:00,48.4,37.9,30.31,ENE,59,0.0,0.0,67,0.00,,,0.01,Wunderground v.1.15,2013-03-29 01:47:00,
2013-03-28 20:53:00,48.2,37.8,30.31,ENE,59,0.0,0.0,67,0.00,,,0.01,Wunderground v.1.15,2013-03-29 01:53:00,
2013-03-28 20:58:00,47.5,38.2,30.31,ENE,59,0.0,1.0,70,0.00,,,0.01,Wunderground v.1.15,2013-03-29 01:58:00,
2013-03-28 21:03:00,47.1,37.8,30.31,ENE,59,0.0,1.0,70,0.00,,,0.01,Wunderground v.1.15,2013-03-29 02:03:00,
2013-03-28 21:08:00,46.9,37.3,30.31,ENE,59,0.0,1.0,69,0.00,,,0.01,Wunderground v.1.15,2013-03-29 02:08:00,
2013-03-28 21:13:00,46.7,37.1,30.31,ENE,59,0.0,2.0,69,0.00,,,0.01,Wunderground v.1.15,2013-03-29 02:13:00,
2013-03-28 21:18:00,46.9,37.6,30.31,ENE,59,1.0,2.0,70,0.00,,,0.01,Wunderground v.1.15,2013-03-29 02:18:00,
2013-03-28 21:23:00,47.0,37.4,30.32,ENE,59,1.0,1.0,69,0.00,,,0.01,Wunderground v.1.15,2013-03-29 02:23:00,
2013-03-28 21:28:00,47.2,37.2,30.32,ENE,59,0.0,1.0,68,0.00,,,0.01,Wunderground v.1.15,2013-03-29 02:28:00,
2013-03-28 21:33:00,47.4,37.7,30.32,ENE,59,1.0,1.0,69,0.00,,,0.01,Wunderground v.1.15,2013-03-29 02:33:00,
2013-03-28 21:38:00,47.3,38.0,30.32,ENE,59,0.0,1.0,70,0.00,,,0.01,Wunderground v.1.15,2013-03-29 02:38:00,
2013-03-28 21:43:00,47.3,38.7,30.32,ENE,59,0.0,0.0,72,0.00,,,0.01,Wunderground v.1.15,2013-03-29 02:43:00,
2013-03-28 21:49:00,47.2,38.3,30.33,ENE,59,0.0,0.0,71,0.00,,,0.01,Wunderground v.1.15,2013-03-29 02:49:00,
2013-03-28 21:54:00,47.2,38.3,30.33,ENE,59,0.0,0.0,71,0.00,,,0.01,Wunderground v.1.15,2013-03-29 02:54:00,
2013-03-28 22:00:00,47.3,38.4,30.32,ENE,59,0.0,2.0,71,0.00,,,0.01,Wunderground v.1.15,2013-03-29 03:00:00,
2013-03-28 22:06:00,47.5,37.8,30.33,ENE,59,1.0,2.0,69,0.00,,,0.01,Wunderground v.1.15,2013-03-29 03:06:00,
2013-03-28 22:11:00,47.7,36.9,30.33,ENE,59,1.0,1.0,66,0.00,,,0.01,Wunderground v.1.15,2013-03-29 03:11:00,
2013-03-28 22:17:00,48.0,36.4,30.33,ENE,59,0.0,1.0,64,0.00,,,0.01,Wunderground v.1.15,2013-03-29 03:17:00,
2013-03-28 22:22:00,48.1,38.4,30.33,ENE,59,0.0,0.0,69,0.00,,,0.01,Wunderground v.1.15,2013-03-29 03:22:00,
2013-03-28 22:28:00,48.2,39.2,30.33,ENE,59,0.0,0.0,71,0.00,,,0.01,Wunderground v.1.15,2013-03-29 03:28:00,
2013-03-28 22:34:00,48.1,37.7,30.33,ENE,59,0.0,0.0,67,0.00,,,0.01,Wunderground v.1.15,2013-03-29 03:34:00,
2013-03-28 22:39:00,48.2,37.4,30.33,ENE,59,0.0,0.0,66,0.00,,,0.01,Wunderground v.1.15,2013-03-29 03:39:00,
2013-03-28 22:44:00,48.3,36.7,30.33,ENE,59,0.0,0.0,64,0.00,,,0.01,Wunderground v.1.15,2013-03-29 03:44:00,
2013-03-28 22:50:00,48.4,36.8,30.33,ENE,59,0.0,0.0,64,0.00,,,0.01,Wunderground v.1.15,2013-03-29 03:50:00,
2013-03-28 22:56:00,48.4,39.1,30.33,ENE,59,0.0,1.0,70,0.00,,,0.01,Wunderground v.1.15,2013-03-29 03:56:00,
2013-03-28 23:00:00,48.1,40.2,30.32,ENE,61,1.0,2.0,74,0.00,,,0.01,Wunderground v.1.15,2013-03-29 04:00:00,
2013-03-28 23:01:00,48.0,40.5,30.32,ENE,61,1.0,2.0,75,0.00,,,0.01,Wunderground v.1.15,2013-03-29 04:01:00,
2013-03-28 23:04:00,47.7,40.2,30.32,ENE,61,1.0,2.0,75,0.00,,,0.01,Wunderground v.1.15,2013-03-29 04:04:00,
2013-03-28 23:10:00,47.2,38.6,30.33,ENE,61,1.0,1.0,72,0.00,,,0.01,Wunderground v.1.15,2013-03-29 04:10:00,
2013-03-28 23:15:00,47.3,38.4,30.33,ENE,61,1.0,1.0,71,0.00,,,0.01,Wunderground v.1.15,2013-03-29 04:15:00,
2013-03-28 23:20:00,47.4,38.5,30.32,ENE,61,0.0,1.0,71,0.00,,,0.01,Wunderground v.1.15,2013-03-29 04:20:00,
2013-03-28 23:25:00,47.7,38.0,30.32,ENE,61,0.0,1.0,69,0.00,,,0.01,Wunderground v.1.15,2013-03-29 04:25:00,
2013-03-28 23:30:00,47.9,39.7,30.32,ENE,61,1.0,1.0,73,0.00,,,0.01,Wunderground v.1.15,2013-03-29 04:30:00,
2013-03-28 23:34:00,47.8,39.9,30.33,ENE,61,1.0,2.0,74,0.00,,,0.01,Wunderground v.1.15,2013-03-29 04:34:00,
2013-03-28 23:39:00,47.6,39.7,30.32,ENE,61,1.0,2.0,74,0.00,,,0.01,Wunderground v.1.15,2013-03-29 04:39:00,
2013-03-28 23:44:00,47.2,40.0,30.32,ENE,61,1.0,2.0,76,0.00,,,0.01,Wunderground v.1.15,2013-03-29 04:44:00,
2013-03-28 23:49:00,46.9,40.1,30.32,ENE,61,1.0,2.0,77,0.00,,,0.01,Wunderground v.1.15,2013-03-29 04:49:00,
2013-03-28 23:54:00,46.7,40.2,30.32,ENE,61,0.0,1.0,78,0.00,,,0.01,Wunderground v.1.15,2013-03-29 04:54:00,
2013-03-28 23:59:00,46.4,39.9,30.32,ENE,73,0.0,2.0,78,0.00,,,0.01,Wunderground v.1.15,2013-03-29 04:59:00,